Regional Weather Roundup
Issued by NWS Grand Forks, ND

Home | Current Version | Previous Version | Text Only | Print | Product List | Glossary Off
Versions: 1 2 3 4 5 6 7 8 9 10 11 12 13 14 15 16 17 18 19 20 21 22 23 24 25 26 27 28 29 30 31 32 33 34 35 36 37 38 39 40 41 42 43 44 45 46 47 48 49 50

000
ASUS43 KFGF 172031
RWRFGF
PRAIRIE TO PINES  WEATHER ROUNDUP
NATIONAL WEATHER SERVICE EASTERN NORTH DAKOTA/GRAND FORKS ND
200 PM CST FRI NOV 17 2017

 **SATELLITE DATA USED TO AUGMENT SKY COVER AT AUTOMATED STATIONS**
 *****  WEATHER ACROSS EASTERN NORTH DAKOTA  *****

CITY           SKY/WX    TMP DP  RH WIND       PRES   REMARKS
GRAND FORKS    PTSUNNY   26  17  68 NW14      29.67F WCI  14
GRAND FRKS AFB FAIR      25  15  66 NW13      29.67F WCI  14
GRAND FRKS NWS   N/A     27 N/A N/A NW15        N/A  WCI  15
DEVILS LAKE    FAIR      21  15  78 W9        29.69S WCI  11
FARGO          FAIR      37  26  64 N14       29.64F
WAHPETON ARPT  NOT AVBL
$$

 ***** WEATHER ACROSS CENTRAL AND WESTERN NORTH DAKOTA  *****

CITY           SKY/WX    TMP DP  RH WIND       PRES   REMARKS
BISMARCK       FAIR      36  24  62 CALM      29.69S
MINOT          FAIR      27  13  55 NW6       29.67F WCI  20
JAMESTOWN      FAIR      28  17  63 NW13      29.68R WCI  17
MINOT AFB      FAIR      24  12  60 NW8       29.66F WCI  15
GARRISON         N/A     29  18  63 CALM      29.68R
WILLISTON      FAIR      31  16  54 VRB3      29.65F
DICKINSON      FAIR      40  25  55 SE6       29.62S
HETTINGER      FAIR      43  24  47 SW5       29.65R
$$

 *****  OTHER AIRPORT OBSERVATIONS IN OUR AREA  *****

CITY           SKY/WX    TMP DP  RH WIND       PRES   REMARKS
WALHALLA       FAIR      23  16  74 NW13      29.69S WCI  11
GRAFTON AIRPOR FAIR      23  16  74 NW10      29.71S WCI  12
VALLEY CITY AR FAIR      27  19  74 NW10      29.69R WCI  17
CANDO          FAIR      23  16  74 NW8       29.70S WCI  14
CAVALIER APRT  FAIR      23  14  68 NW12      29.70R WCI  12
GWINNER          N/A     37  23  56 N13       29.65R
SHEYENNE NWR     N/A     36  24  60 N7        29.95S
ROLLA          FAIR      23  16  74 N6        29.65S WCI  16
 ***** THE ABOVE OBSERVATIONS ARE NON NWS ARE NOT QUALITY
       CONTROLLED AND MAY MIS-REPORT RAIN FOR SNOW...
$$

  *****  WEATHER ACROSS NORTHERN MINNESOTA  *****

CITY           SKY/WX    TMP DP  RH WIND       PRES   REMARKS
FLAG ISLAND    FAIR      27  18  69 W8        29.62R WCI  18
WARROAD        FAIR      28  19  69 W12       29.64S WCI  18
ROSEAU         FAIR      27  18  69 W8        29.65S WCI  18
HALLOCK        FAIR      25  18  74 NW10      29.68F WCI  15
THF RVR FALLS  FAIR      27  20  75 NW14      29.65F WCI  16
BAUDETTE       FAIR      32  26  78 NW14      29.60R WCI  22
WASKISH        PTSUNNY   34  30  86 W8        29.61F
CROOKSTON      FAIR      27  18  69 N13       29.68S WCI  16
STEPHEN NDAWN    N/A     21  14  73 N8          N/A  WCI  12
GREENBUSH NDAW   N/A     21  16  79 NW9         N/A  WCI  11
$$
  *****  WEATHER ACROSS CENTRAL AND WEST MINNESOTA  *****

CITY           SKY/WX    TMP DP  RH WIND       PRES   REMARKS
FOSSTON        FAIR      34  25  69 NW8       29.63F
BEMIDJI        FAIR      37  30  78 NW10      29.60F
PARK RAPIDS    FAIR      39  32  76 NW8       29.59F
ELBOW LAKE     FAIR      37  32  84 N6        29.61F
WADENA         FAIR      36  32  87 N3        29.60F
DETROIT LAKES  FAIR      36  32  87 N7        29.61F
MOORHEAD       FAIR      34  21  60 N13       29.67R WCI  25
FERGUS FALLS   FAIR      39  30  70 NE6       29.62F
MORRIS MN      FAIR      39  34  81 N8        29.60F
STAPLES          N/A     36  34  93 CALM      29.61F
$$
  *****  WEATHER ELSEWHERE ACROSS MINNESOTA  *****

CITY           SKY/WX    TMP DP  RH WIND       PRES   REMARKS
DULUTH         LGT SNOW  32  32 100 SW12      29.60F FOG     WCI  23
INTRNTL FALLS  CLOUDY    37  29  72 W9        29.60R
ELY            CLOUDY    32  30  93 SW5       29.61S
CLOQUET        MIX PCPN  34  30  86 W9        29.64R
WHEATON        FAIR      39  30  70 N9        29.64F
BRAINERD       CLOUDY    37  33  85 N5        29.64F
HIBBING        CLOUDY    32  31  96 CALM      29.63R FOG
ALEXANDRIA     FAIR      37  33  85 NE6       29.61F
SAINT CLOUD    CLOUDY    39  34  82 E5        29.61F
MINNEAPOLIS    DRIZZLE   38  38 100 E3        29.63R FOG
$$

  *****  WEATHER ACROSS SOUTH DAKOTA  *****

CITY           SKY/WX    TMP DP  RH WIND       PRES   REMARKS
SIOUX FALLS    PTSUNNY   49  38  65 N12       29.57F
BROOKINGS        N/A     47  34  60 MISG      29.58S
WATERTOWN      FAIR      43  35  73 N15       29.58F
HURON          PTSUNNY   47  33  58 N15       29.61S
SISSETON         N/A     41  32  70 N13       29.61F
ABERDEEN       CLOUDY    44  30  57 N14       29.65R
MITCHELL       FAIR      48  34  58 N14       29.59F
PIERRE         CLOUDY    44  37  76 NW10      29.66R
MOBRIDGE       CLOUDY    43  30  60 N6        29.64R
RAPID CITY     CLOUDY    42  34  73 S8        29.64R
$$

  *****  SOME WEATHER IN NEARBY STATES *****

CITY           SKY/WX    TMP DP  RH WIND       PRES   REMARKS
GLASGOW MT     FAIR      40  25  55 SW6       29.61R
GREAT FALLS MT FAIR      44  16  32 W24G36    29.66R
CHEYENNE WY    LGT RAIN  41  38  89 NW20G28   29.66R FOG
SCOTTSBLUFF NE LGT RAIN  48  33  56 W3        29.64R
OMAHA NE       CLOUDY    58  52  80 SE6       29.51F HAZE
DES MOINES IA  CLOUDY    50  48  93 SE14      29.55F FOG
DAVENPORT IA   CLOUDY    42  37  82 S17G24    29.70F HAZE
CHICAGO IL     LGT RAIN  41  34  76 S18       29.83F
EAU CLAIRE WI  CLOUDY    36  35  96 CALM      29.65F FOG
LA CROSSE WI   CLOUDY    39  36  89 S8        29.65F FOG
$$

  *****  SOME NATIONAL WEATHER *****

CITY           SKY/WX    TMP DP  RH WIND       PRES   REMARKS
LA GUARDIA NY  FAIR      48  21  34 W21G28    30.05S
RALEIGH NC     PTSUNNY   56  30  37 VRB6      30.16F
ATLANTA GA     FAIR      66  42  41 SE8       30.10F
NEW ORLEANS LA FAIR      77  61  57 S12       30.04F
OKLAHOMA CITY  PTSUNNY   80  54  40 SW26G33   29.64F
ALBUQUERQUE NM PTSUNNY   68  22  17 SW14G22   29.97F
SALT LAKE CITY FLURRIES  37  36  96 N10       29.93R
LOS ANGELES CA PTSUNNY   69  61  75 SW12      30.06F
BOISE ID       FAIR      46  25  43 NW20G32   30.05R
SEATTLE WA     PTSUNNY   48  39  71 SW17      30.10R
$$

*** WEATHER ACROSS MANITOBA...SASKATCHEWAN AND ONTARIO ***
                ***ONTARIO***

CITY           SKY/WX    TMP DP  RH WIND       PRES   REMARKS
GERALDTON      SNOWSHWR  32  32 100 S9        29.62F VSB 1/4 WCI  24
THUNDER BAY    LGT SNOW  32  32 100 VRB2      29.63S VSB 3/4
SIOUX LOOKOUT  CLOUDY    34  30  86 W6        29.53R
TORONTO        MOSUNNY   34  21  60 S9        30.13F
BIG TROUT LK   FLURRIES  28  27  93 SW10G20   29.37  WCI  19
PICKLE LAKE    FRZ DRZL  32  30  93 SW12G18   29.47R FOG     WCI  23
DRYDEN         CLOUDY    34  30  86 W14G20    29.54R WCI  24
KENORA         PTSUNNY   27  21  80 NW8       29.58S WCI  18
$$
                *** MANITOBA***

CITY           SKY/WX    TMP DP  RH WIND       PRES   REMARKS
BRANDON        MOSUNNY   19  10  68 W15       29.69S WCI   5
DAUPHIN        MOSUNNY   18  10  73 W15G21    29.68R WCI   3
ISLAND LAKE    NOT AVBL
PILOT MOUND      N/A     19  12  73 NW12        N/A  WCI   7
THE PAS        FLURRIES  16   9  73 NW16      29.59  WCI   0
THOMPSON       FLURRIES  10   3  72 W15       29.45R WCI  -6
WINNIPEG       MOSUNNY   21  12  68 W13       29.69S WCI   9
LYNN LAKE      FLURRIES  10   5  79 W16G22    29.41S WCI  -7
CHURCHILL      LGT SNOW  16  12  86 S7        29.31S BLWGSNOWWCI   6
GILLAM         LGT SNOW  14  10  85 W16G23    29.33  VSB 1   WCI  -2
$$
                ***SASKATCHEWAN***

CITY           SKY/WX    TMP DP  RH WIND       PRES   REMARKS
ESTEVAN        MOSUNNY   19   9  63 NW3       29.67S
KINDERSLEY     CLOUDY    12   7  79 W7        29.69R WCI   2
LLOYDMINSTER   PTSUNNY    5   0  78 W10       29.69R WCI -10
PRINCE ALBERT  FLURRIES  12   5  73 NW9       29.67S WCI   0
REGINA         PTSUNNY   10   3  72 SW6       29.68R WCI   1
YORKTON        PTSUNNY   16   7  67 W5        29.66R WCI   9
N. BATTLEFORD  PTSUNNY    9   0  66 NW14      29.72R WCI  -8
LA RONGE       FLURRIES  10   3  72 W13G20    29.62R WCI  -5
SASKATOON      PTSUNNY   12   7  79 W14       29.70R WCI  -3
SWIFT CURRENT  SUNNY     14   5  67 N7        29.63R WCI   4
$$
NOTE: THESE ARE AUTOMATED STATIONS WITH LIMITED QUALITY CONTROL
      "FAIR" INDICATES FEW OR NO CLOUDS BELOW 12,000 FEET WITH NO
      SIGNIFICANT WEATHER AND/OR OBSTRUCTIONS TO VISIBILITY.
      SKY/WX - SKY CONDITION AND SIGNIFICANT WEATHER.
      TMP - AIR TEMPERATURE.    DP   - DEWPOINT TEMPERATURE.
      RH  - RELATIVE HUMIDITY.  PRES - PRESSURE.
      HX  - HEAT INDEX.         WCI  - WIND CHILL INDEX.
$



USA.gov is the U.S. government's official web portal to all federal, state and local government web resources and services.